Tiempo Historia de Barquisimeto, Venezuela

Change the Weather History Date:

Sábado, Febrero 25, 2012

  Actual Average Record
Temperature  
Temperatura media 78 ° F -  
Temperatura máxima 87 ° F 85 ° F 89 ° F (1998)
Temperatura mínima 69 ° F 66 ° F 64 ° F (2006)
Cooling Degree Days 13    
Growing Degree Days 28 (Base 50)    
Moisture  
Punto de rocío 65 ° F    
Average Humidity 69    
Maximum Humidity 94    
Minimum Humidity 44    
Precipitación  
Precipitación 0.00 pul - - ()
Presión al nivel del mar  
Presión al nivel del mar 29.99 pul    
Viento  
Velocidad del viento 5 mph ()    
Velocidad máxima del viento 18 mph    
Max Gust Speed -    
Visibilidad 6.4 Millas    
Eventos      
Averages and records for this station are not official NWS values.
T = Trace of Precipitation, MM = Missing Value Source: Averaged Metar Reports

Daily Weather History Graph

Daily Weather History Graph

Search for Another Location

Airport:

Trip Planner

Search our weather history database for the weather conditions in past years. The results will help you decide how hot, cold, wet, or windy it might be!

Date:

Astronomía

Feb. 25, 2012 Salida Puesta
Hora real 6:23 AM VET 6:17 PM VET
Crepúsculo civil 6:02 AM VET 6:38 PM VET
Crepúsculo náutico 5:37 AM VET 7:03 PM VET
Crepúsculo astronómico 5:13 AM VET 7:27 PM VET
Luna 8:38 AM VET (2/25) 9:16 PM VET (2/25)
Horas de luz 12h 36m
Horas de luz
11h 53m
Creciente, 13% of the Moon is Illuminated
Feb 25
Creciente
Feb 29
Cuarto creciente
Mar 8
Luna llena
Mar 14
Cuarto menguante
Mar 22
Nueva

Hourly Weather History & Observations

Hora (VET) Temp. Índice de calor Punto de rocío Humedad Presión Visibilidad Wind Dir Velocidad del viento Velocidad de ráfagas Precip Eventos Condiciones
1:30 AM 71 ° F - 66 ° F 81% 29.91 pul 6 mi ENE 4.5 mph - -   Nublado
1:30 AM 71.6 ° F - 66.2 ° F 83% 30.04 pul 6.2 mi ENE 3.5 mph - N/A   Nublado
4:30 AM 69.8 ° F - 68.0 ° F 94% 30.01 pul 6.2 mi Sin viento Sin viento - N/A   Nublado
5:30 AM 69.8 ° F - 68.0 ° F 94% 29.98 pul 6.2 mi Sin viento Sin viento - N/A   Nublado
6:30 AM 69.8 ° F - 68.0 ° F 94% 30.01 pul 6.2 mi ENE 3.5 mph - N/A   Muy nublado
7:30 AM 69.8 ° F - 68.0 ° F 94% 30.01 pul 6.2 mi ENE 3.5 mph - N/A   Muy nublado
8:30 AM 73.4 ° F - 66.2 ° F 78% 30.04 pul 6.2 mi NE 3.5 mph - N/A   Nubes dispersas
9:30 AM 77.0 ° F - 69.8 ° F 78% 30.04 pul 6.2 mi ENE 5.8 mph - N/A   Nubes dispersas
10:30 AM 77.0 ° F - 66.2 ° F 69% 30.06 pul 6.2 mi ENE 6.9 mph - N/A   Nubes dispersas
11:30 AM 78.8 ° F - 68.0 ° F 69% 30.04 pul 6.2 mi ENE 9.2 mph - N/A   Nubes dispersas
12:30 PM 82.4 ° F 84.6 ° F 66.2 ° F 58% 30.04 pul 6.2 mi Este 3.5 mph - N/A   Nubes dispersas
1:30 PM 87 ° F - 68 ° F 44% 29.90 pul 12 mi ENE 6.7 mph - -   Parcialmente nublado
1:30 PM 87.8 ° F 91.4 ° F 68.0 ° F 52% 30.01 pul 6.2 mi ENE 6.9 mph - N/A   Nubes dispersas
2:30 PM 87.8 ° F 91.4 ° F 68.0 ° F 52% 29.98 pul 6.2 mi Este 10.4 mph - N/A   Nubes dispersas
3:30 PM 84.2 ° F 85.0 ° F 62.6 ° F 48% 29.95 pul 6.2 mi ENE 11.5 mph - N/A   Nubes dispersas
4:30 PM 84.2 ° F 85.0 ° F 62.6 ° F 48% 29.95 pul 6.2 mi ENE 13.8 mph - N/A   Muy nublado
5:30 PM 80.6 ° F 81.8 ° F 62.6 ° F 54% 29.95 pul 6.2 mi ENE 18.4 mph - N/A   Muy nublado
6:30 PM 75.2 ° F - 55.4 ° F 50% 29.95 pul 6.2 mi NE 13.8 mph - N/A   Muy nublado
7:30 PM 73 ° F - 60 ° F 56% 29.91 pul 6 mi NE 6.7 mph - -   Nubes dispersas
7:30 PM 73.4 ° F - 60.8 ° F 65% 29.98 pul 6.2 mi NE 6.9 mph - N/A   Parcialmente nublado
8:30 PM 71.6 ° F - 62.6 ° F 73% 30.01 pul 6.2 mi NE 9.2 mph - N/A   Parcialmente nublado
9:30 PM 69.8 ° F - 62.6 ° F 78% 30.04 pul 6.2 mi NE 10.4 mph - N/A   Nubes dispersas
10:30 PM 69.8 ° F - 64.4 ° F 83% 30.06 pul 6.2 mi Sin viento Sin viento - N/A   Parcialmente nublado